TimeCST,TemperatureF,Dew PointF,Humidity,Sea Level PressureIn,VisibilityMPH,Wind Direction,Wind SpeedMPH,Gust SpeedMPH,PrecipitationIn,Events,Conditions,WindDirDegrees,DateUTC
12:35 AM,35.8,33.4,91,29.72,7.0,NNW,21.9,26.5,N/A,,Overcast,340,2012-11-11 06:35:00
12:55 AM,34.7,32.0,90,29.73,10.0,NNW,16.1,24.2,N/A,,Overcast,340,2012-11-11 06:55:00
1:15 AM,33.6,31.3,91,29.74,7.0,NW,19.6,28.8,N/A,,Overcast,320,2012-11-11 07:15:00
1:35 AM,32.2,30.6,94,29.75,3.0,NNW,21.9,25.3,N/A,,Overcast,330,2012-11-11 07:35:00
1:55 AM,32.0,29.3,90,29.74,10.0,NNW,23.0,29.9,N/A,,Overcast,340,2012-11-11 07:55:00
2:15 AM,32.0,28.8,88,29.76,10.0,NNW,18.4,25.3,N/A,,Overcast,330,2012-11-11 08:15:00
2:35 AM,32.0,28.6,87,29.77,7.0,NNW,20.7,28.8,N/A,,Overcast,330,2012-11-11 08:35:00
2:55 AM,31.5,28.2,88,29.78,7.0,NNW,18.4,26.5,N/A,,Overcast,340,2012-11-11 08:55:00
3:15 AM,31.1,28.4,90,29.81,7.0,NNW,18.4,25.3,N/A,,Overcast,330,2012-11-11 09:15:00
3:35 AM,30.9,28.2,90,29.80,10.0,NNW,12.7,23.0,N/A,,Overcast,330,2012-11-11 09:35:00
3:55 AM,30.4,27.7,90,29.81,7.0,NW,23.0,28.8,N/A,,Overcast,320,2012-11-11 09:55:00
4:15 AM,29.7,26.6,88,29.82,7.0,NNW,19.6,29.9,N/A,,Overcast,330,2012-11-11 10:15:00
4:35 AM,29.3,26.6,90,29.83,10.0,NNW,19.6,27.6,N/A,,Overcast,330,2012-11-11 10:35:00
4:55 AM,29.3,25.7,86,29.82,10.0,NNW,23.0,28.8,N/A,,Overcast,330,2012-11-11 10:55:00
5:15 AM,28.9,24.6,84,29.82,10.0,NNW,21.9,31.1,N/A,,Overcast,330,2012-11-11 11:15:00
5:35 AM,28.8,23.9,82,29.83,10.0,NNW,20.7,27.6,N/A,,Overcast,330,2012-11-11 11:35:00
5:55 AM,28.4,23.2,81,29.85,10.0,NW,19.6,27.6,N/A,,Overcast,320,2012-11-11 11:55:00
6:15 AM,28.0,22.6,80,29.85,10.0,NNW,23.0,29.9,N/A,,Overcast,330,2012-11-11 12:15:00
6:35 AM,27.5,22.3,81,29.88,10.0,NNW,16.1,25.3,N/A,,Overcast,330,2012-11-11 12:35:00
6:55 AM,27.3,21.7,80,29.87,10.0,NNW,18.4,27.6,N/A,,Overcast,330,2012-11-11 12:55:00
7:35 AM,26.6,21.0,79,29.90,10.0,NNW,20.7,27.6,N/A,,Overcast,330,2012-11-11 13:35:00
7:55 AM,26.4,20.1,77,29.90,10.0,NNW,20.7,27.6,N/A,,Overcast,330,2012-11-11 13:55:00
8:15 AM,26.1,19.8,77,29.92,10.0,NW,23.0,27.6,N/A,,Overcast,320,2012-11-11 14:15:00
8:35 AM,25.7,19.0,76,29.93,10.0,NW,18.4,25.3,N/A,,Overcast,320,2012-11-11 14:35:00
9:35 AM,25.9,18.5,74,29.96,10.0,NNW,19.6,28.8,N/A,,Overcast,330,2012-11-11 15:35:00
9:55 AM,26.1,18.3,73,29.97,10.0,NW,18.4,27.6,N/A,,Overcast,320,2012-11-11 15:55:00
10:15 AM,26.4,17.4,69,29.97,10.0,NNW,16.1,26.5,N/A,,Overcast,330,2012-11-11 16:15:00
10:35 AM,28.2,18.9,68,29.97,10.0,NNW,21.9,29.9,N/A,,Scattered Clouds,330,2012-11-11 16:35:00
10:55 AM,28.0,17.6,65,29.94,10.0,NW,24.2,32.2,N/A,,Clear,320,2012-11-11 16:55:00
11:15 AM,28.6,16.9,62,29.98,10.0,NW,26.5,29.9,N/A,,Clear,320,2012-11-11 17:15:00
11:35 AM,28.8,16.0,59,29.96,10.0,NNW,24.2,33.4,N/A,,Clear,330,2012-11-11 17:35:00
11:55 AM,29.7,15.6,56,29.98,10.0,NNW,21.9,29.9,N/A,,Clear,330,2012-11-11 17:55:00
12:15 PM,29.8,16.9,59,29.99,10.0,NW,23.0,28.8,N/A,,Clear,320,2012-11-11 18:15:00
12:35 PM,30.0,16.5,57,29.99,10.0,NW,17.3,27.6,N/A,,Clear,320,2012-11-11 18:35:00
12:55 PM,30.2,15.4,54,30.00,10.0,NW,21.9,26.5,N/A,,Clear,310,2012-11-11 18:55:00
1:15 PM,30.9,16.0,54,29.98,10.0,NW,17.3,27.6,N/A,,Clear,320,2012-11-11 19:15:00
1:35 PM,31.8,16.5,53,29.99,10.0,NNW,19.6,24.2,N/A,,Clear,330,2012-11-11 19:35:00
1:55 PM,32.0,15.6,51,30.00,10.0,NW,16.1,27.6,N/A,,Clear,310,2012-11-11 19:55:00
2:15 PM,32.0,15.1,50,30.00,10.0,NW,19.6,27.6,N/A,,Clear,310,2012-11-11 20:15:00
2:35 PM,32.0,13.8,47,30.00,10.0,NW,21.9,28.8,N/A,,Clear,320,2012-11-11 20:35:00
2:55 PM,32.2,14.9,49,30.00,10.0,NW,17.3,26.5,N/A,,Clear,320,2012-11-11 20:55:00
3:15 PM,32.2,14.5,48,30.01,10.0,NW,18.4,23.0,N/A,,Clear,310,2012-11-11 21:15:00
3:35 PM,32.0,13.3,46,30.02,10.0,NW,16.1,24.2,N/A,,Clear,310,2012-11-11 21:35:00
3:55 PM,32.0,12.9,45,30.03,10.0,NW,18.4,23.0,N/A,,Clear,310,2012-11-11 21:55:00
4:15 PM,31.6,12.7,46,30.04,10.0,WNW,19.6,25.3,N/A,,Clear,300,2012-11-11 22:15:00
4:35 PM,30.9,13.8,49,30.05,10.0,WNW,18.4,25.3,N/A,,Clear,300,2012-11-11 22:35:00
4:55 PM,29.7,14.5,53,30.06,10.0,NW,15.0,-,N/A,,Clear,310,2012-11-11 22:55:00
5:15 PM,29.1,14.2,54,30.07,10.0,NW,15.0,20.7,N/A,,Clear,310,2012-11-11 23:15:00
5:35 PM,28.4,14.5,56,30.07,10.0,NW,11.5,-,N/A,,Clear,310,2012-11-11 23:35:00
5:55 PM,28.2,15.1,58,30.08,10.0,WNW,9.2,-,N/A,,Clear,300,2012-11-11 23:55:00
6:15 PM,28.0,15.6,60,30.09,10.0,WNW,12.7,-,N/A,,Clear,300,2012-11-12 00:15:00
6:35 PM,27.7,15.4,60,30.10,10.0,WNW,11.5,-,N/A,,Clear,300,2012-11-12 00:35:00
6:55 PM,27.5,16.0,62,30.10,10.0,WNW,8.1,-,N/A,,Clear,300,2012-11-12 00:55:00
7:15 PM,27.3,16.7,64,30.10,10.0,WNW,9.2,-,N/A,,Clear,290,2012-11-12 01:15:00
7:35 PM,26.6,16.7,66,30.11,10.0,West,4.6,-,N/A,,Clear,280,2012-11-12 01:35:00
7:55 PM,25.3,16.7,70,30.12,10.0,West,5.8,-,N/A,,Clear,270,2012-11-12 01:55:00
8:15 PM,25.5,17.1,70,30.12,10.0,West,8.1,-,N/A,,Clear,270,2012-11-12 02:15:00
8:35 PM,26.8,16.3,65,30.13,10.0,WNW,10.4,-,N/A,,Clear,290,2012-11-12 02:35:00
8:55 PM,27.3,16.0,62,30.14,10.0,NW,16.1,-,N/A,,Clear,310,2012-11-12 02:55:00
9:15 PM,27.3,15.8,62,30.15,10.0,WNW,11.5,-,N/A,,Clear,300,2012-11-12 03:15:00
9:35 PM,26.6,15.4,63,30.16,10.0,NW,9.2,-,N/A,,Clear,310,2012-11-12 03:35:00
9:55 PM,26.4,15.3,63,30.16,10.0,WNW,9.2,-,N/A,,Clear,300,2012-11-12 03:55:00
10:15 PM,26.2,15.8,65,30.16,10.0,WNW,12.7,-,N/A,,Clear,290,2012-11-12 04:15:00
10:35 PM,26.4,15.8,64,30.16,10.0,West,12.7,-,N/A,,Clear,280,2012-11-12 04:35:00
10:55 PM,26.4,15.6,64,30.17,10.0,West,11.5,-,N/A,,Clear,280,2012-11-12 04:55:00
11:15 PM,25.7,15.8,66,30.17,10.0,West,12.7,-,N/A,,Clear,280,2012-11-12 05:15:00
11:35 PM,25.7,15.8,66,30.18,10.0,West,11.5,-,N/A,,Clear,280,2012-11-12 05:35:00
11:55 PM,25.7,15.8,66,30.18,10.0,West,11.5,16.1,N/A,,Clear,270,2012-11-12 05:55:00